Airfield :
LOGIN :

Register | Disclaimer

   EN    FR    IT 

 










Legend :    VFR   Marginal VFR   IFR   Intensive IFR   Very Intensive IFR
Visi :
Ceiling :
>= 8 km
>= 3000ft
5 to 8 km
1000 to 3000 ft
1500m to 5 km
500 to 1000 ft
800 to 1500m
200 to 500 ft
< 800m
< 200 ft
Symbols :   Thunderstorms  Fog  Heavy snow  Heavy precipitations  Wind > 20 kt
SIGMETs :     Misc.  Thunderstorms  Icing  Turbulence  Mountain Waves  Volcanic Ashes






- Airport Elevation : 386 ft
- IATA code : QOE


ETNN - Nörvenich Airforce Base

CURRENT METAR :
  • 312120Z 19009KT 9999 -RA FEW015 BKN040 14/11 Q1015 BLU

EXPIRED METARs :
  • 312020Z 20009KT 9999 -RA FEW015 BKN035 14/11 Q1015 RERA BLU
  • 311920Z 20008KT 9999 -RA FEW020 BKN035 15/10 Q1015 BLU

TAF TAF ETNN
Valid from the 31 at 21:00 until the 01 at 06:00 UTC


312000Z 3121/0106 17005KT 9999 NSW BKN030
TEMPO 3121/0106 19012KT 4000 RA BKN010 BY ETGL



MET'MAP, your aeronautical weather chart ! - Copyright ORBIFLY December 2007 - Disclaimer

ORBIFLY MET'MAP TEAM :

Programming & Development : Alexandra Zaïnal
Concept & original design : Baudouin d'Aumeries
Assistance for programming : Marc-Olivier Méhu
Technical & hardware support : Manuel Goepfert

Contact : metmap@orbifly.com




SOURCES & CREDITS :

   NOAA